Time,TemperatureF,DewpointF,PressureIn,WindDirection,WindDirectionDegrees,WindSpeedMPH,WindSpeedGustMPH,Humidity,HourlyPrecipIn,Conditions,Clouds,dailyrainin,SoftwareType,DateUTC
2013-04-17 00:00:00,52.2,49.4,30.15,NW,317,4.0,14.0,90,0.00,,,0.00,Wunderground v.1.15,2013-04-17 04:00:00,
2013-04-17 00:05:00,52.0,48.9,30.15,WNW,287,4.0,14.0,89,0.00,,,0.00,Wunderground v.1.15,2013-04-17 04:05:00,
2013-04-17 00:10:00,51.7,48.9,30.15,WNW,302,3.0,3.0,90,0.00,,,0.00,Wunderground v.1.15,2013-04-17 04:10:00,
2013-04-17 00:15:00,51.5,48.7,30.15,West,265,1.0,14.0,90,0.00,,,0.00,Wunderground v.1.15,2013-04-17 04:15:00,
2013-04-17 00:20:00,51.4,48.6,30.15,SSE,163,0.0,14.0,90,0.00,,,0.00,Wunderground v.1.15,2013-04-17 04:20:00,
2013-04-17 00:25:00,51.2,48.1,30.15,WSW,253,1.0,14.0,89,0.00,,,0.00,Wunderground v.1.15,2013-04-17 04:25:00,
2013-04-17 00:30:00,51.2,48.1,30.16,NW,316,1.0,1.0,89,0.00,,,0.00,Wunderground v.1.15,2013-04-17 04:30:00,
2013-04-17 00:35:00,51.0,47.3,30.17,NNE,18,1.0,14.0,87,0.00,,,0.01,Wunderground v.1.15,2013-04-17 04:35:00,
2013-04-17 00:45:00,50.4,45.7,30.18,SW,229,4.0,14.0,84,0.00,,,0.01,Wunderground v.1.15,2013-04-17 04:45:00,
2013-04-17 00:50:00,50.0,44.7,30.18,WSW,250,4.0,4.0,82,0.00,,,0.01,Wunderground v.1.15,2013-04-17 04:50:00,
2013-04-17 00:55:00,49.7,44.7,30.18,SSW,201,3.0,14.0,83,0.00,,,0.01,Wunderground v.1.15,2013-04-17 04:55:00,
2013-04-17 01:00:00,49.4,44.8,30.17,WSW,237,1.0,1.0,84,0.00,,,0.01,Wunderground v.1.15,2013-04-17 05:00:00,
2013-04-17 01:05:00,49.2,44.9,30.18,SW,220,0.0,14.0,85,0.00,,,0.02,Wunderground v.1.15,2013-04-17 05:05:00,
2013-04-17 01:10:00,48.9,44.9,30.18,SW,226,1.0,1.0,86,0.00,,,0.02,Wunderground v.1.15,2013-04-17 05:10:00,
2013-04-17 01:20:00,48.8,44.5,30.18,NW,311,2.0,14.0,85,0.00,,,0.02,Wunderground v.1.15,2013-04-17 05:20:00,
2013-04-17 01:25:00,48.8,44.5,30.18,WNW,297,1.0,14.0,85,0.00,,,0.02,Wunderground v.1.15,2013-04-17 05:25:00,
2013-04-17 01:30:00,48.8,44.5,30.19,NW,313,1.0,1.0,85,0.00,,,0.02,Wunderground v.1.15,2013-04-17 05:30:00,
2013-04-17 01:35:00,48.7,44.1,30.18,NW,314,1.0,2.0,84,0.00,,,0.02,Wunderground v.1.15,2013-04-17 05:35:00,
2013-04-17 01:40:00,48.7,44.1,30.18,WNW,298,2.0,2.0,84,0.00,,,0.02,Wunderground v.1.15,2013-04-17 05:40:00,
2013-04-17 01:45:00,48.7,44.1,30.18,North,5,2.0,14.0,84,0.00,,,0.02,Wunderground v.1.15,2013-04-17 05:45:00,
2013-04-17 01:55:00,48.3,44.6,30.18,North,360,0.0,14.0,87,0.00,,,0.02,Wunderground v.1.15,2013-04-17 05:55:00,
2013-04-17 02:00:00,48.1,44.4,30.18,North,360,0.0,14.0,87,0.00,,,0.02,Wunderground v.1.15,2013-04-17 06:00:00,
2013-04-17 02:05:00,47.9,44.2,30.18,North,360,0.0,14.0,87,0.00,,,0.02,Wunderground v.1.15,2013-04-17 06:05:00,
2013-04-17 02:10:00,47.8,44.1,30.19,North,360,0.0,14.0,87,0.00,,,0.02,Wunderground v.1.15,2013-04-17 06:10:00,
2013-04-17 02:15:00,47.7,44.0,30.19,North,360,0.0,14.0,87,0.00,,,0.02,Wunderground v.1.15,2013-04-17 06:15:00,
2013-04-17 02:20:00,47.5,44.1,30.19,NNW,347,0.0,14.0,88,0.00,,,0.02,Wunderground v.1.15,2013-04-17 06:20:00,
2013-04-17 02:25:00,47.4,44.0,30.19,NNW,329,0.0,14.0,88,0.00,,,0.02,Wunderground v.1.15,2013-04-17 06:25:00,
2013-04-17 02:35:00,47.4,43.4,30.19,WNW,296,1.0,14.0,86,0.00,,,0.02,Wunderground v.1.15,2013-04-17 06:35:00,
2013-04-17 02:40:00,47.6,43.3,30.19,WNW,298,2.0,14.0,85,0.00,,,0.02,Wunderground v.1.15,2013-04-17 06:40:00,
2013-04-17 02:45:00,47.7,43.1,30.19,NW,315,2.0,14.0,84,0.00,,,0.02,Wunderground v.1.15,2013-04-17 06:45:00,
2013-04-17 02:50:00,47.8,43.2,30.19,WNW,292,2.0,2.0,84,0.00,,,0.02,Wunderground v.1.15,2013-04-17 06:50:00,
2013-04-17 02:55:00,47.8,43.2,30.19,North,355,1.0,6.0,84,0.00,,,0.02,Wunderground v.1.15,2013-04-17 06:55:00,
2013-04-17 03:00:00,47.8,42.9,30.19,WNW,285,2.0,2.0,83,0.00,,,0.02,Wunderground v.1.15,2013-04-17 07:00:00,
2013-04-17 03:10:00,47.8,42.9,30.19,WNW,298,1.0,1.0,83,0.00,,,0.02,Wunderground v.1.15,2013-04-17 07:10:00,
2013-04-17 03:15:00,47.8,43.2,30.19,WNW,298,1.0,14.0,84,0.00,,,0.02,Wunderground v.1.15,2013-04-17 07:15:00,
2013-04-17 03:20:00,47.7,42.8,30.19,WNW,298,0.0,14.0,83,0.00,,,0.02,Wunderground v.1.15,2013-04-17 07:20:00,
2013-04-17 03:25:00,47.7,43.4,30.19,NNW,336,0.0,14.0,85,0.00,,,0.02,Wunderground v.1.15,2013-04-17 07:25:00,
2013-04-17 03:30:00,47.6,43.3,30.19,NNW,336,0.0,14.0,85,0.00,,,0.02,Wunderground v.1.15,2013-04-17 07:30:00,
2013-04-17 03:35:00,47.4,42.8,30.19,NNW,336,0.0,14.0,84,0.00,,,0.02,Wunderground v.1.15,2013-04-17 07:35:00,
2013-04-17 03:40:00,47.3,42.7,30.20,NW,319,0.0,14.0,84,0.00,,,0.02,Wunderground v.1.15,2013-04-17 07:40:00,
2013-04-17 03:50:00,47.0,42.4,30.20,NNW,335,1.0,1.0,84,0.00,,,0.02,Wunderground v.1.15,2013-04-17 07:50:00,
2013-04-17 03:55:00,46.8,41.9,30.20,NNW,343,1.0,5.0,83,0.00,,,0.02,Wunderground v.1.15,2013-04-17 07:55:00,
2013-04-17 04:00:00,46.6,41.7,30.20,NNW,331,3.0,14.0,83,0.00,,,0.02,Wunderground v.1.15,2013-04-17 08:00:00,
2013-04-17 04:05:00,46.5,41.6,30.20,West,281,3.0,14.0,83,0.00,,,0.02,Wunderground v.1.15,2013-04-17 08:05:00,
2013-04-17 04:10:00,46.4,41.5,30.20,WNW,294,3.0,14.0,83,0.00,,,0.02,Wunderground v.1.15,2013-04-17 08:10:00,
2013-04-17 04:20:00,46.1,40.6,30.20,WNW,302,2.0,2.0,81,0.00,,,0.02,Wunderground v.1.15,2013-04-17 08:20:00,
2013-04-17 04:25:00,46.0,40.2,30.21,WNW,300,2.0,2.0,80,0.00,,,0.02,Wunderground v.1.15,2013-04-17 08:25:00,
2013-04-17 04:30:00,45.9,39.8,30.21,NW,304,2.0,2.0,79,0.00,,,0.02,Wunderground v.1.15,2013-04-17 08:30:00,
2013-04-17 04:35:00,45.8,39.0,30.21,WNW,287,3.0,5.0,77,0.00,,,0.02,Wunderground v.1.15,2013-04-17 08:35:00,
2013-04-17 04:40:00,45.6,38.8,30.21,WNW,294,4.0,4.0,77,0.00,,,0.02,Wunderground v.1.15,2013-04-17 08:40:00,
2013-04-17 04:45:00,45.3,38.5,30.21,WNW,291,4.0,4.0,77,0.00,,,0.02,Wunderground v.1.15,2013-04-17 08:45:00,
2013-04-17 04:55:00,44.8,38.4,30.21,WNW,293,2.0,3.0,78,0.00,,,0.02,Wunderground v.1.15,2013-04-17 08:55:00,
2013-04-17 05:00:00,44.6,38.5,30.21,NW,311,1.0,1.0,79,0.00,,,0.02,Wunderground v.1.15,2013-04-17 09:00:00,
2013-04-17 05:05:00,44.3,37.9,30.21,WNW,292,1.0,8.0,78,0.00,,,0.02,Wunderground v.1.15,2013-04-17 09:05:00,
2013-04-17 05:10:00,44.1,37.7,30.21,WNW,284,2.0,8.0,78,0.00,,,0.02,Wunderground v.1.15,2013-04-17 09:10:00,
2013-04-17 05:15:00,43.8,37.4,30.21,NNW,328,2.0,8.0,78,0.00,,,0.02,Wunderground v.1.15,2013-04-17 09:15:00,
2013-04-17 05:20:00,43.6,37.5,30.21,WNW,292,1.0,1.0,79,0.00,,,0.02,Wunderground v.1.15,2013-04-17 09:20:00,
2013-04-17 05:25:00,43.3,37.2,30.20,WNW,284,2.0,6.0,79,0.00,,,0.02,Wunderground v.1.15,2013-04-17 09:25:00,
2013-04-17 05:35:00,42.9,36.5,30.20,WNW,298,5.0,8.0,78,0.00,,,0.02,Wunderground v.1.15,2013-04-17 09:35:00,
2013-04-17 05:40:00,42.8,36.4,30.20,WNW,298,6.0,6.0,78,0.00,,,0.02,Wunderground v.1.15,2013-04-17 09:40:00,
2013-04-17 05:45:00,42.6,36.5,30.20,WNW,288,5.0,8.0,79,0.00,,,0.02,Wunderground v.1.15,2013-04-17 09:45:00,
2013-04-17 05:50:00,42.4,36.0,30.20,WNW,285,5.0,10.0,78,0.00,,,0.02,Wunderground v.1.15,2013-04-17 09:50:00,
2013-04-17 05:55:00,42.3,35.9,30.20,WNW,290,6.0,10.0,78,0.00,,,0.02,Wunderground v.1.15,2013-04-17 09:55:00,
2013-04-17 06:05:00,42.2,35.8,30.21,WNW,288,5.0,8.0,78,0.00,,,0.02,Wunderground v.1.15,2013-04-17 10:05:00,
2013-04-17 06:10:00,42.0,35.6,30.22,WNW,299,4.0,8.0,78,0.00,,,0.02,Wunderground v.1.15,2013-04-17 10:10:00,
2013-04-17 06:20:00,41.7,35.7,30.22,WNW,287,3.0,8.0,79,0.00,,,0.02,Wunderground v.1.15,2013-04-17 10:20:00,
2013-04-17 06:25:00,41.7,35.7,30.22,WNW,293,3.0,8.0,79,0.00,,,0.02,Wunderground v.1.15,2013-04-17 10:25:00,
2013-04-17 06:30:00,41.6,35.6,30.23,WNW,297,3.0,8.0,79,0.00,,,0.02,Wunderground v.1.15,2013-04-17 10:30:00,
2013-04-17 06:35:00,41.5,35.5,30.23,WNW,296,3.0,8.0,79,0.00,,,0.02,Wunderground v.1.15,2013-04-17 10:35:00,
2013-04-17 06:45:00,41.5,35.5,30.24,West,271,4.0,8.0,79,0.00,,,0.02,Wunderground v.1.15,2013-04-17 10:45:00,
2013-04-17 06:50:00,41.5,35.5,30.24,WNW,288,4.0,8.0,79,0.00,,,0.02,Wunderground v.1.15,2013-04-17 10:50:00,
2013-04-17 06:55:00,41.5,35.5,30.24,WNW,284,4.0,8.0,79,0.00,,,0.02,Wunderground v.1.15,2013-04-17 10:55:00,
2013-04-17 07:00:00,41.6,35.2,30.25,NW,308,5.0,5.0,78,0.00,,,0.02,Wunderground v.1.15,2013-04-17 11:00:00,
2013-04-17 07:05:00,41.6,35.2,30.25,WNW,300,5.0,8.0,78,0.00,,,0.02,Wunderground v.1.15,2013-04-17 11:05:00,
2013-04-17 07:10:00,41.7,35.3,30.25,WNW,289,4.0,4.0,78,0.00,,,0.02,Wunderground v.1.15,2013-04-17 11:10:00,
2013-04-17 07:15:00,41.8,35.1,30.25,WNW,300,5.0,5.0,77,0.00,,,0.02,Wunderground v.1.15,2013-04-17 11:15:00,
2013-04-17 07:25:00,42.1,35.4,30.26,WNW,283,5.0,8.0,77,0.00,,,0.02,Wunderground v.1.15,2013-04-17 11:25:00,
2013-04-17 07:30:00,42.3,35.6,30.27,West,280,3.0,8.0,77,0.00,,,0.02,Wunderground v.1.15,2013-04-17 11:30:00,
2013-04-17 07:35:00,42.5,35.5,30.27,WNW,302,4.0,8.0,76,0.00,,,0.02,Wunderground v.1.15,2013-04-17 11:35:00,
2013-04-17 07:40:00,42.7,35.7,30.27,NNW,329,5.0,8.0,76,0.00,,,0.02,Wunderground v.1.15,2013-04-17 11:40:00,
2013-04-17 07:45:00,42.9,35.9,30.27,West,271,5.0,8.0,76,0.00,,,0.02,Wunderground v.1.15,2013-04-17 11:45:00,
2013-04-17 07:50:00,43.1,35.7,30.27,NW,317,5.0,5.0,75,0.00,,,0.02,Wunderground v.1.15,2013-04-17 11:50:00,
2013-04-17 08:00:00,43.6,35.9,30.28,WNW,300,6.0,10.0,74,0.00,,,0.02,Wunderground v.1.15,2013-04-17 12:00:00,
2013-04-17 08:10:00,44.0,35.9,30.28,West,267,6.0,8.0,73,0.00,,,0.02,Wunderground v.1.15,2013-04-17 12:10:00,
2013-04-17 08:15:00,44.2,35.7,30.28,NW,315,6.0,8.0,72,0.00,,,0.02,Wunderground v.1.15,2013-04-17 12:15:00,
2013-04-17 08:20:00,44.4,36.3,30.28,WNW,290,6.0,6.0,73,0.00,,,0.02,Wunderground v.1.15,2013-04-17 12:20:00,
2013-04-17 08:25:00,44.7,36.6,30.28,WNW,298,6.0,8.0,73,0.00,,,0.02,Wunderground v.1.15,2013-04-17 12:25:00,
2013-04-17 08:30:00,45.0,36.5,30.28,West,271,5.0,8.0,72,0.00,,,0.02,Wunderground v.1.15,2013-04-17 12:30:00,
2013-04-17 08:35:00,45.4,37.2,30.27,WNW,299,5.0,8.0,73,0.00,,,0.02,Wunderground v.1.15,2013-04-17 12:35:00,
2013-04-17 08:45:00,46.0,37.1,30.28,WNW,290,5.0,8.0,71,0.00,,,0.02,Wunderground v.1.15,2013-04-17 12:45:00,
2013-04-17 08:50:00,46.4,37.1,30.28,WNW,300,4.0,8.0,70,0.00,,,0.02,Wunderground v.1.15,2013-04-17 12:50:00,
2013-04-17 08:55:00,46.8,36.8,30.28,NNE,28,5.0,8.0,68,0.00,,,0.02,Wunderground v.1.15,2013-04-17 12:55:00,
2013-04-17 09:00:00,47.1,36.3,30.28,WNW,298,5.0,8.0,66,0.00,,,0.02,Wunderground v.1.15,2013-04-17 13:00:00,
2013-04-17 09:05:00,47.5,35.9,30.28,NNW,338,6.0,8.0,64,0.00,,,0.02,Wunderground v.1.15,2013-04-17 13:05:00,
2013-04-17 09:10:00,47.7,36.5,30.28,WNW,302,6.0,6.0,65,0.00,,,0.02,Wunderground v.1.15,2013-04-17 13:10:00,
2013-04-17 09:15:00,48.0,37.2,30.28,North,355,5.0,8.0,66,0.00,,,0.02,Wunderground v.1.15,2013-04-17 13:15:00,
2013-04-17 09:25:00,49.0,35.7,30.28,NNW,338,6.0,7.0,60,0.00,,,0.02,Wunderground v.1.15,2013-04-17 13:25:00,
2013-04-17 09:30:00,49.3,36.0,30.28,NNW,331,7.0,7.0,60,0.00,,,0.02,Wunderground v.1.15,2013-04-17 13:30:00,
2013-04-17 09:35:00,49.5,35.3,30.28,WNW,289,7.0,10.0,58,0.00,,,0.02,Wunderground v.1.15,2013-04-17 13:35:00,
2013-04-17 09:40:00,49.7,36.4,30.28,North,355,6.0,6.0,60,0.00,,,0.02,Wunderground v.1.15,2013-04-17 13:40:00,
2013-04-17 09:45:00,50.1,35.9,30.28,NNW,329,6.0,8.0,58,0.00,,,0.02,Wunderground v.1.15,2013-04-17 13:45:00,
2013-04-17 09:50:00,50.2,35.5,30.28,West,269,7.0,13.0,57,0.00,,,0.02,Wunderground v.1.15,2013-04-17 13:50:00,
2013-04-17 10:00:00,50.5,36.3,30.29,NNW,346,7.0,7.0,58,0.00,,,0.02,Wunderground v.1.15,2013-04-17 14:00:00,
2013-04-17 10:05:00,50.8,36.5,30.29,NW,309,6.0,8.0,58,0.00,,,0.02,Wunderground v.1.15,2013-04-17 14:05:00,
2013-04-17 10:10:00,51.4,35.8,30.29,WNW,302,6.0,10.0,55,0.00,,,0.02,Wunderground v.1.15,2013-04-17 14:10:00,
2013-04-17 10:15:00,51.5,35.4,30.29,WNW,290,8.0,10.0,54,0.00,,,0.02,Wunderground v.1.15,2013-04-17 14:15:00,
2013-04-17 10:20:00,51.7,36.5,30.29,WNW,288,8.0,8.0,56,0.00,,,0.02,Wunderground v.1.15,2013-04-17 14:20:00,
2013-04-17 10:25:00,52.2,35.6,30.29,NW,326,6.0,8.0,53,0.00,,,0.02,Wunderground v.1.15,2013-04-17 14:25:00,
2013-04-17 10:30:00,52.6,35.9,30.29,WSW,242,6.0,6.0,53,0.00,,,0.02,Wunderground v.1.15,2013-04-17 14:30:00,
2013-04-17 10:40:00,53.2,36.5,30.29,NNW,348,5.0,5.0,53,0.00,,,0.02,Wunderground v.1.15,2013-04-17 14:40:00,
2013-04-17 10:45:00,53.8,37.1,30.29,NW,311,5.0,8.0,53,0.00,,,0.02,Wunderground v.1.15,2013-04-17 14:45:00,
2013-04-17 10:50:00,53.9,37.1,30.29,NNW,339,5.0,5.0,53,0.00,,,0.02,Wunderground v.1.15,2013-04-17 14:50:00,
2013-04-17 10:55:00,54.2,37.4,30.29,WNW,286,5.0,8.0,53,0.00,,,0.02,Wunderground v.1.15,2013-04-17 14:55:00,
2013-04-17 11:00:00,54.1,36.9,30.28,WNW,300,7.0,7.0,52,0.00,,,0.02,Wunderground v.1.15,2013-04-17 15:00:00,
2013-04-17 11:05:00,54.6,38.3,30.29,WNW,298,7.0,8.0,54,0.00,,,0.02,Wunderground v.1.15,2013-04-17 15:05:00,
2013-04-17 11:10:00,55.3,37.5,30.28,NW,306,5.0,5.0,51,0.00,,,0.02,Wunderground v.1.15,2013-04-17 15:10:00,
2013-04-17 11:20:00,55.9,37.5,30.28,WNW,288,5.0,5.0,50,0.00,,,0.02,Wunderground v.1.15,2013-04-17 15:20:00,
2013-04-17 11:25:00,55.2,37.9,30.28,NW,304,5.0,8.0,52,0.00,,,0.02,Wunderground v.1.15,2013-04-17 15:25:00,
2013-04-17 11:30:00,55.7,37.3,30.28,West,267,6.0,9.0,50,0.00,,,0.02,Wunderground v.1.15,2013-04-17 15:30:00,
2013-04-17 11:35:00,54.9,37.6,30.28,West,277,6.0,9.0,52,0.00,,,0.02,Wunderground v.1.15,2013-04-17 15:35:00,
2013-04-17 11:40:00,54.7,36.9,30.28,West,263,6.0,8.0,51,0.00,,,0.02,Wunderground v.1.15,2013-04-17 15:40:00,
2013-04-17 11:45:00,55.1,36.3,30.28,NW,309,6.0,8.0,49,0.00,,,0.02,Wunderground v.1.15,2013-04-17 15:45:00,
2013-04-17 11:55:00,55.6,36.2,30.27,WNW,292,8.0,8.0,48,0.00,,,0.02,Wunderground v.1.15,2013-04-17 15:55:00,
2013-04-17 12:00:00,56.2,37.3,30.27,West,261,7.0,8.0,49,0.00,,,0.02,Wunderground v.1.15,2013-04-17 16:00:00,
2013-04-17 12:05:00,56.1,36.7,30.27,WNW,298,7.0,8.0,48,0.00,,,0.02,Wunderground v.1.15,2013-04-17 16:05:00,
2013-04-17 12:10:00,56.5,36.0,30.27,West,281,7.0,7.0,46,0.00,,,0.02,Wunderground v.1.15,2013-04-17 16:10:00,
2013-04-17 12:15:00,56.7,35.0,30.27,WNW,290,7.0,14.0,44,0.00,,,0.02,Wunderground v.1.15,2013-04-17 16:15:00,
2013-04-17 12:20:00,56.4,35.9,30.28,WNW,295,9.0,9.0,46,0.00,,,0.02,Wunderground v.1.15,2013-04-17 16:20:00,
2013-04-17 12:30:00,56.5,35.4,30.27,West,281,8.0,11.0,45,0.00,,,0.02,Wunderground v.1.15,2013-04-17 16:30:00,
2013-04-17 12:35:00,56.6,36.0,30.27,NW,307,9.0,13.0,46,0.00,,,0.02,Wunderground v.1.15,2013-04-17 16:35:00,
2013-04-17 12:40:00,56.8,34.5,30.26,WNW,302,9.0,9.0,43,0.00,,,0.02,Wunderground v.1.15,2013-04-17 16:40:00,
2013-04-17 12:45:00,56.8,35.7,30.26,NW,306,8.0,9.0,45,0.00,,,0.02,Wunderground v.1.15,2013-04-17 16:45:00,
2013-04-17 12:50:00,56.9,35.8,30.26,WNW,292,7.0,8.0,45,0.00,,,0.02,Wunderground v.1.15,2013-04-17 16:50:00,
2013-04-17 12:55:00,57.4,36.8,30.26,WNW,297,8.0,14.0,46,0.00,,,0.02,Wunderground v.1.15,2013-04-17 16:55:00,
2013-04-17 13:00:00,57.5,36.3,30.26,North,350,6.0,6.0,45,0.00,,,0.02,Wunderground v.1.15,2013-04-17 17:00:00,
2013-04-17 13:10:00,59.2,39.5,30.26,NNW,339,3.0,8.0,48,0.00,,,0.02,Wunderground v.1.15,2013-04-17 17:10:00,
2013-04-17 13:15:00,59.7,38.3,30.26,NW,315,5.0,8.0,45,0.00,,,0.02,Wunderground v.1.15,2013-04-17 17:15:00,
2013-04-17 13:20:00,60.0,38.0,30.26,NNW,332,6.0,6.0,44,0.00,,,0.02,Wunderground v.1.15,2013-04-17 17:20:00,
2013-04-17 13:25:00,60.1,38.1,30.26,North,5,5.0,9.0,44,0.00,,,0.02,Wunderground v.1.15,2013-04-17 17:25:00,
2013-04-17 13:30:00,60.0,39.1,30.26,North,355,5.0,8.0,46,0.00,,,0.02,Wunderground v.1.15,2013-04-17 17:30:00,
2013-04-17 13:35:00,60.4,40.6,30.26,NW,317,5.0,8.0,48,0.00,,,0.02,Wunderground v.1.15,2013-04-17 17:35:00,
2013-04-17 13:45:00,61.2,38.5,30.26,NNW,344,4.0,6.0,43,0.00,,,0.02,Wunderground v.1.15,2013-04-17 17:45:00,
2013-04-17 13:55:00,61.1,39.0,30.26,North,350,6.0,8.0,44,0.00,,,0.02,Wunderground v.1.15,2013-04-17 17:55:00,
2013-04-17 14:00:00,61.3,38.6,30.26,NNE,26,5.0,8.0,43,0.00,,,0.02,Wunderground v.1.15,2013-04-17 18:00:00,
2013-04-17 14:05:00,61.5,38.2,30.26,NE,49,5.0,8.0,42,0.00,,,0.02,Wunderground v.1.15,2013-04-17 18:05:00,
2013-04-17 14:10:00,61.3,36.8,30.26,NNW,344,6.0,8.0,40,0.00,,,0.02,Wunderground v.1.15,2013-04-17 18:10:00,
2013-04-17 14:15:00,61.4,39.3,30.26,NNE,26,5.0,8.0,44,0.00,,,0.02,Wunderground v.1.15,2013-04-17 18:15:00,
2013-04-17 14:20:00,61.6,38.3,30.26,North,355,5.0,9.0,42,0.00,,,0.02,Wunderground v.1.15,2013-04-17 18:20:00,
2013-04-17 14:30:00,62.3,40.7,30.26,North,9,3.0,8.0,45,0.00,,,0.02,Wunderground v.1.15,2013-04-17 18:30:00,
2013-04-17 14:35:00,62.5,39.7,30.26,NNW,331,4.0,8.0,43,0.00,,,0.02,Wunderground v.1.15,2013-04-17 18:35:00,
2013-04-17 14:40:00,62.7,39.9,30.26,North,5,5.0,8.0,43,0.00,,,0.02,Wunderground v.1.15,2013-04-17 18:40:00,
2013-04-17 14:45:00,62.9,38.8,30.26,North,360,4.0,8.0,41,0.00,,,0.02,Wunderground v.1.15,2013-04-17 18:45:00,
2013-04-17 14:50:00,62.8,40.0,30.26,North,9,5.0,8.0,43,0.00,,,0.02,Wunderground v.1.15,2013-04-17 18:50:00,
2013-04-17 14:55:00,63.1,40.2,30.27,NW,310,5.0,8.0,43,0.00,,,0.02,Wunderground v.1.15,2013-04-17 18:55:00,
2013-04-17 15:00:00,63.1,39.0,30.26,NNE,15,4.0,8.0,41,0.00,,,0.02,Wunderground v.1.15,2013-04-17 19:00:00,
2013-04-17 15:10:00,62.7,39.3,30.26,NNW,331,4.0,8.0,42,0.00,,,0.02,Wunderground v.1.15,2013-04-17 19:10:00,
2013-04-17 15:15:00,62.8,40.5,30.26,NW,304,3.0,8.0,44,0.00,,,0.02,Wunderground v.1.15,2013-04-17 19:15:00,
2013-04-17 15:20:00,63.0,40.1,30.26,West,275,4.0,4.0,43,0.00,,,0.02,Wunderground v.1.15,2013-04-17 19:20:00,
2013-04-17 15:25:00,62.9,37.5,30.26,WNW,286,4.0,7.0,39,0.00,,,0.02,Wunderground v.1.15,2013-04-17 19:25:00,
2013-04-17 15:30:00,62.5,36.5,30.26,NE,34,5.0,5.0,38,0.00,,,0.02,Wunderground v.1.15,2013-04-17 19:30:00,
2013-04-17 15:35:00,62.7,39.3,30.26,NE,55,5.0,8.0,42,0.00,,,0.02,Wunderground v.1.15,2013-04-17 19:35:00,
2013-04-17 15:40:00,63.4,38.6,30.26,NW,322,3.0,3.0,40,0.00,,,0.02,Wunderground v.1.15,2013-04-17 19:40:00,
2013-04-17 15:50:00,63.4,38.6,30.26,West,277,6.0,9.0,40,0.00,,,0.02,Wunderground v.1.15,2013-04-17 19:50:00,
2013-04-17 15:55:00,63.3,38.6,30.26,NNW,336,6.0,9.0,40,0.00,,,0.02,Wunderground v.1.15,2013-04-17 19:55:00,
2013-04-17 16:00:00,63.4,38.0,30.26,NNW,330,5.0,5.0,39,0.00,,,0.02,Wunderground v.1.15,2013-04-17 20:00:00,
2013-04-17 16:05:00,62.9,36.9,30.25,North,355,4.0,8.0,38,0.00,,,0.02,Wunderground v.1.15,2013-04-17 20:05:00,
2013-04-17 16:10:00,63.0,37.0,30.25,WNW,291,4.0,8.0,38,0.00,,,0.02,Wunderground v.1.15,2013-04-17 20:10:00,
2013-04-17 16:15:00,63.1,37.7,30.25,North,350,4.0,8.0,39,0.00,,,0.02,Wunderground v.1.15,2013-04-17 20:15:00,
2013-04-17 16:25:00,63.4,38.0,30.25,NW,326,3.0,8.0,39,0.00,,,0.02,Wunderground v.1.15,2013-04-17 20:25:00,
2013-04-17 16:30:00,63.1,37.1,30.25,North,349,5.0,9.0,38,0.00,,,0.02,Wunderground v.1.15,2013-04-17 20:30:00,
2013-04-17 16:35:00,62.6,37.3,30.26,NNW,331,5.0,9.0,39,0.00,,,0.02,Wunderground v.1.15,2013-04-17 20:35:00,
2013-04-17 16:40:00,62.3,37.7,30.26,NNW,344,6.0,6.0,40,0.00,,,0.02,Wunderground v.1.15,2013-04-17 20:40:00,
2013-04-17 16:45:00,62.2,36.9,30.26,NW,309,5.0,8.0,39,0.00,,,0.02,Wunderground v.1.15,2013-04-17 20:45:00,
2013-04-17 16:50:00,62.3,37.0,30.27,WNW,300,3.0,3.0,39,0.00,,,0.02,Wunderground v.1.15,2013-04-17 20:50:00,
2013-04-17 16:55:00,62.2,36.9,30.26,North,5,4.0,6.0,39,0.00,,,0.02,Wunderground v.1.15,2013-04-17 20:55:00,
2013-04-17 17:05:00,61.6,36.4,30.27,WNW,298,5.0,8.0,39,0.00,,,0.02,Wunderground v.1.15,2013-04-17 21:05:00,
2013-04-17 17:10:00,61.5,36.9,30.27,WNW,300,6.0,6.0,40,0.00,,,0.02,Wunderground v.1.15,2013-04-17 21:10:00,
2013-04-17 17:20:00,61.4,37.5,30.27,NNW,336,5.0,5.0,41,0.00,,,0.02,Wunderground v.1.15,2013-04-17 21:20:00,
2013-04-17 17:25:00,61.4,36.2,30.28,WNW,284,3.0,6.0,39,0.00,,,0.02,Wunderground v.1.15,2013-04-17 21:25:00,
2013-04-17 17:30:00,60.9,35.1,30.27,WNW,288,4.0,8.0,38,0.00,,,0.02,Wunderground v.1.15,2013-04-17 21:30:00,
2013-04-17 17:40:00,60.4,35.9,30.27,NW,304,5.0,5.0,40,0.00,,,0.02,Wunderground v.1.15,2013-04-17 21:40:00,
2013-04-17 17:45:00,60.8,37.5,30.27,NNW,345,2.0,8.0,42,0.00,,,0.02,Wunderground v.1.15,2013-04-17 21:45:00,
2013-04-17 17:50:00,61.0,37.1,30.27,WNW,288,2.0,8.0,41,0.00,,,0.02,Wunderground v.1.15,2013-04-17 21:50:00,
2013-04-17 17:55:00,60.9,37.6,30.27,NW,319,3.0,8.0,42,0.00,,,0.02,Wunderground v.1.15,2013-04-17 21:55:00,
2013-04-17 18:00:00,60.4,36.6,30.28,WNW,288,3.0,8.0,41,0.00,,,0.02,Wunderground v.1.15,2013-04-17 22:00:00,
2013-04-17 18:05:00,60.2,37.0,30.28,WNW,299,3.0,8.0,42,0.00,,,0.02,Wunderground v.1.15,2013-04-17 22:05:00,
2013-04-17 18:10:00,60.1,36.9,30.28,WNW,286,4.0,8.0,42,0.00,,,0.02,Wunderground v.1.15,2013-04-17 22:10:00,
2013-04-17 18:20:00,59.8,36.6,30.28,NW,322,4.0,4.0,42,0.00,,,0.02,Wunderground v.1.15,2013-04-17 22:20:00,
2013-04-17 18:25:00,59.6,36.5,30.28,NW,304,4.0,8.0,42,0.00,,,0.02,Wunderground v.1.15,2013-04-17 22:25:00,
2013-04-17 18:30:00,59.6,36.5,30.28,WNW,302,3.0,3.0,42,0.00,,,0.02,Wunderground v.1.15,2013-04-17 22:30:00,
2013-04-17 18:35:00,59.6,36.5,30.28,NW,309,3.0,8.0,42,0.00,,,0.02,Wunderground v.1.15,2013-04-17 22:35:00,
2013-04-17 18:40:00,59.6,37.1,30.28,WNW,292,3.0,8.0,43,0.00,,,0.02,Wunderground v.1.15,2013-04-17 22:40:00,
2013-04-17 18:45:00,59.4,35.7,30.28,WNW,301,3.0,8.0,41,0.00,,,0.02,Wunderground v.1.15,2013-04-17 22:45:00,
2013-04-17 18:50:00,59.1,36.0,30.28,WNW,290,3.0,3.0,42,0.00,,,0.02,Wunderground v.1.15,2013-04-17 22:50:00,
2013-04-17 19:00:00,59.1,36.6,30.28,WNW,290,0.0,8.0,43,0.00,,,0.02,Wunderground v.1.15,2013-04-17 23:00:00,
2013-04-17 19:05:00,59.0,36.5,30.29,NW,305,1.0,8.0,43,0.00,,,0.02,Wunderground v.1.15,2013-04-17 23:05:00,
2013-04-17 19:10:00,58.8,35.7,30.29,NW,304,2.0,2.0,42,0.00,,,0.02,Wunderground v.1.15,2013-04-17 23:10:00,
2013-04-17 19:15:00,58.6,36.2,30.29,WNW,302,2.0,8.0,43,0.00,,,0.02,Wunderground v.1.15,2013-04-17 23:15:00,
2013-04-17 19:20:00,58.3,35.9,30.29,NW,306,1.0,1.0,43,0.00,,,0.02,Wunderground v.1.15,2013-04-17 23:20:00,
2013-04-17 19:25:00,58.0,35.6,30.29,NW,306,0.0,8.0,43,0.00,,,0.02,Wunderground v.1.15,2013-04-17 23:25:00,
2013-04-17 19:35:00,57.1,35.4,30.28,NW,306,0.0,8.0,44,0.00,,,0.02,Wunderground v.1.15,2013-04-17 23:35:00,
2013-04-17 19:45:00,56.3,35.8,30.28,NW,306,0.0,8.0,46,0.00,,,0.02,Wunderground v.1.15,2013-04-17 23:45:00,
2013-04-17 19:50:00,55.8,35.9,30.28,NW,306,0.0,8.0,47,0.00,,,0.02,Wunderground v.1.15,2013-04-17 23:50:00,
2013-04-17 19:55:00,55.2,37.4,30.29,NW,306,0.0,8.0,51,0.00,,,0.02,Wunderground v.1.15,2013-04-17 23:55:00,
2013-04-17 20:00:00,54.7,37.4,30.28,NW,306,0.0,8.0,52,0.00,,,0.02,Wunderground v.1.15,2013-04-18 00:00:00,
2013-04-17 20:05:00,54.0,36.3,30.29,NW,306,0.0,8.0,51,0.00,,,0.02,Wunderground v.1.15,2013-04-18 00:05:00,
2013-04-17 20:10:00,53.4,35.7,30.29,NW,306,0.0,8.0,51,0.00,,,0.02,Wunderground v.1.15,2013-04-18 00:10:00,
2013-04-17 20:20:00,52.3,35.2,30.29,NW,306,0.0,8.0,52,0.00,,,0.02,Wunderground v.1.15,2013-04-18 00:20:00,
2013-04-17 20:25:00,51.7,35.1,30.29,NW,306,0.0,8.0,53,0.00,,,0.02,Wunderground v.1.15,2013-04-18 00:25:00,
2013-04-17 20:30:00,51.2,34.6,30.29,NW,306,0.0,8.0,53,0.00,,,0.02,Wunderground v.1.15,2013-04-18 00:30:00,
2013-04-17 20:35:00,50.7,34.6,30.29,NW,306,0.0,8.0,54,0.00,,,0.02,Wunderground v.1.15,2013-04-18 00:35:00,
2013-04-17 20:40:00,50.4,34.8,30.30,NW,306,0.0,8.0,55,0.00,,,0.02,Wunderground v.1.15,2013-04-18 00:40:00,
2013-04-17 20:45:00,50.0,34.9,30.30,NW,306,0.0,8.0,56,0.00,,,0.02,Wunderground v.1.15,2013-04-18 00:45:00,
2013-04-17 20:50:00,49.8,35.2,30.30,NW,306,0.0,8.0,57,0.00,,,0.02,Wunderground v.1.15,2013-04-18 00:50:00,
2013-04-17 21:00:00,49.2,34.6,30.31,NW,306,0.0,8.0,57,0.00,,,0.02,Wunderground v.1.15,2013-04-18 01:00:00,
2013-04-17 21:05:00,48.9,34.8,30.31,NW,306,0.0,8.0,58,0.00,,,0.02,Wunderground v.1.15,2013-04-18 01:05:00,
2013-04-17 21:10:00,48.6,34.5,30.31,NW,306,0.0,8.0,58,0.00,,,0.02,Wunderground v.1.15,2013-04-18 01:10:00,
2013-04-17 21:15:00,48.5,34.4,30.32,NW,306,0.0,8.0,58,0.00,,,0.02,Wunderground v.1.15,2013-04-18 01:15:00,
2013-04-17 21:20:00,48.3,34.2,30.32,NW,306,0.0,8.0,58,0.00,,,0.02,Wunderground v.1.15,2013-04-18 01:20:00,
2013-04-17 21:25:00,48.1,34.4,30.32,NW,306,0.0,8.0,59,0.00,,,0.02,Wunderground v.1.15,2013-04-18 01:25:00,
2013-04-17 21:35:00,47.5,35.1,30.32,NW,306,0.0,8.0,62,0.00,,,0.02,Wunderground v.1.15,2013-04-18 01:35:00,
2013-04-17 21:40:00,47.3,34.5,30.31,NW,306,0.0,8.0,61,0.00,,,0.02,Wunderground v.1.15,2013-04-18 01:40:00,
2013-04-17 21:45:00,47.0,34.6,30.31,NW,306,0.0,8.0,62,0.00,,,0.02,Wunderground v.1.15,2013-04-18 01:45:00,
2013-04-17 21:50:00,46.8,34.5,30.31,NW,306,0.0,8.0,62,0.00,,,0.02,Wunderground v.1.15,2013-04-18 01:50:00,
2013-04-17 21:55:00,46.6,34.3,30.31,NW,306,0.0,8.0,62,0.00,,,0.02,Wunderground v.1.15,2013-04-18 01:55:00,
2013-04-17 22:00:00,46.3,34.8,30.31,NW,306,0.0,8.0,64,0.00,,,0.02,Wunderground v.1.15,2013-04-18 02:00:00,
2013-04-17 22:05:00,46.1,34.6,30.31,NW,306,0.0,8.0,64,0.00,,,0.02,Wunderground v.1.15,2013-04-18 02:05:00,
2013-04-17 22:15:00,45.7,34.6,30.31,NW,306,0.0,8.0,65,0.00,,,0.02,Wunderground v.1.15,2013-04-18 02:15:00,
2013-04-17 22:20:00,45.6,35.6,30.31,NW,306,0.0,8.0,68,0.00,,,0.02,Wunderground v.1.15,2013-04-18 02:20:00,
2013-04-17 22:25:00,45.4,36.5,30.31,NW,306,0.0,8.0,71,0.00,,,0.02,Wunderground v.1.15,2013-04-18 02:25:00,
2013-04-17 22:30:00,45.2,36.4,30.31,NW,306,0.0,8.0,71,0.00,,,0.02,Wunderground v.1.15,2013-04-18 02:30:00,
2013-04-17 22:35:00,45.0,35.8,30.31,NW,306,0.0,8.0,70,0.00,,,0.02,Wunderground v.1.15,2013-04-18 02:35:00,
2013-04-17 22:40:00,44.7,34.8,30.31,NW,306,0.0,8.0,68,0.00,,,0.02,Wunderground v.1.15,2013-04-18 02:40:00,
2013-04-17 22:45:00,44.6,34.7,30.31,NW,306,0.0,8.0,68,0.00,,,0.02,Wunderground v.1.15,2013-04-18 02:45:00,
2013-04-17 22:55:00,44.3,34.4,30.31,NW,306,0.0,8.0,68,0.00,,,0.02,Wunderground v.1.15,2013-04-18 02:55:00,
2013-04-17 23:00:00,44.3,34.4,30.31,NW,306,0.0,8.0,68,0.00,,,0.02,Wunderground v.1.15,2013-04-18 03:00:00,
2013-04-17 23:05:00,44.1,34.6,30.31,NW,306,0.0,8.0,69,0.00,,,0.02,Wunderground v.1.15,2013-04-18 03:05:00,
2013-04-17 23:10:00,43.9,34.0,30.32,NW,306,0.0,8.0,68,0.00,,,0.02,Wunderground v.1.15,2013-04-18 03:10:00,
2013-04-17 23:15:00,43.7,34.2,30.32,NW,306,0.0,8.0,69,0.00,,,0.02,Wunderground v.1.15,2013-04-18 03:15:00,
2013-04-17 23:20:00,43.7,34.2,30.32,NW,306,0.0,8.0,69,0.00,,,0.02,Wunderground v.1.15,2013-04-18 03:20:00,
2013-04-17 23:30:00,43.7,34.2,30.33,NW,306,0.0,8.0,69,0.00,,,0.02,Wunderground v.1.15,2013-04-18 03:30:00,
2013-04-17 23:35:00,43.7,34.2,30.33,NW,306,0.0,8.0,69,0.00,,,0.02,Wunderground v.1.15,2013-04-18 03:35:00,
2013-04-17 23:40:00,43.8,34.3,30.33,NW,306,0.0,8.0,69,0.00,,,0.02,Wunderground v.1.15,2013-04-18 03:40:00,
2013-04-17 23:45:00,43.8,34.3,30.33,NW,306,0.0,8.0,69,0.00,,,0.02,Wunderground v.1.15,2013-04-18 03:45:00,
2013-04-17 23:50:00,43.7,33.8,30.33,NW,306,0.0,8.0,68,0.00,,,0.02,Wunderground v.1.15,2013-04-18 03:50:00,
2013-04-17 23:55:00,43.6,33.7,30.33,NW,306,0.0,8.0,68,0.00,,,0.02,Wunderground v.1.15,2013-04-18 03:55:00,